• MPC Preparation (Info)

  • MPEC 2014-T31 : 2014 TS16

    The following Minor Planet Electronic Circular may be linked-to from your own Web pages, but must not otherwise be redistributed electronically.

    A form allowing access to any MPEC is at the bottom of this page.


    Read MPEC 2014-T30 Read MPEC 2014-T32


    M.P.E.C. 2014-T31                                Issued 2014 Oct. 4, 03:19 UT
    
         The Minor Planet Electronic Circulars contain information on unusual
             minor planets and routine data on comets.  They are published
       on behalf of Commission 20 of the International Astronomical Union by the
              Minor Planet Center, Smithsonian Astrophysical Observatory,
                              Cambridge, MA 02138, U.S.A.
    
                 Prepared using the Tamkin Foundation Computer Network
    
                                  MPC@CFA.HARVARD.EDU
                URL https://www.minorplanetcenter.net/    ISSN 1523-6714
    
                                       2014 TS16
    
    Observations:
         K14T16S* C2014 10 01.17549 22 09 02.86 -07 49 55.7          20.4 VqET031G96
         K14T16S  C2014 10 01.18080 22 09 02.39 -07 50 11.7          20.6 VqET031G96
         K14T16S  C2014 10 01.18611 22 09 01.86 -07 50 28.8          20.9 VqET031G96
         K14T16S  C2014 10 01.19142 22 09 01.39 -07 50 44.9          20.3 VqET031G96
         K14T16S  C2014 10 01.26148 22 08 54.90 -07 54 25.1          20.2 VqET031G96
         K14T16S  C2014 10 01.26897 22 08 54.22 -07 54 48.5          20.0 VqET031G96
         K14T16S  C2014 10 01.27647 22 08 53.56 -07 55 12.3          20.0 VqET031G96
         K14T16S  C2014 10 01.28396 22 08 52.84 -07 55 35.3          19.9 VqET031G96
         K14T16S  C2014 10 01.30795922 08 50.60 -07 56 51.5          20.6 RtET031H01
         K14T16S  C2014 10 01.31477122 08 49.99 -07 57 12.8          20.9 RtET031H01
         K14T16S  C2014 10 01.32251322 08 49.31 -07 57 37.1          20.0 RtET031H01
         K14T16S  C2014 10 01.32924222 08 48.71 -07 57 58.1          20.8 RtET031H01
         K14T16S |C2014 10 02.03812 22 07 54.96 -08 34 57.2          21.0 VuET031807
         K14T16S |C2014 10 02.04549 22 07 54.29 -08 35 21.3          21.0 VuET031807
         K14T16S |C2014 10 02.05228 22 07 53.65 -08 35 43.0          21.3 VuET031807
         K14T16S KC2014 10 03.11841 22 06 31.24 -09 34 18.0          20.6 RoET031291
         K14T16S KC2014 10 03.11968 22 06 31.16 -09 34 22.2          20.3 RoET031291
         K14T16S KC2014 10 03.12095 22 06 31.01 -09 34 26.1          20.4 RoET031291
         K14T16S  C2014 10 03.16891 22 06 26.69 -09 37 05.7          20.1 VqET031G96
         K14T16S  C2014 10 03.17883 22 06 25.80 -09 37 39.5          21.0 VqET031G96
         K14T16S  C2014 10 03.18876 22 06 24.82 -09 38 12.2                qET031G96
         K14T16S  C2014 10 03.19868 22 06 23.95 -09 38 44.5          20.0 VqET031G96
         K14T16S KC2014 10 04.10712122 05 15.70 -10 29 33.6          20.8 RtET031H01
         K14T16S KC2014 10 04.11256822 05 15.24 -10 29 52.1          20.6 RtET031H01
         K14T16S KC2014 10 04.12103222 05 14.48 -10 30 20.7          20.4 RtET031H01
         K14T16S KC2014 10 04.12749622 05 13.92 -10 30 42.8          19.9 RtET031H01
    
    Observer details:
    291 LPL/Spacewatch II.  Observers R. S. McMillan, A. F. Tubbiolo.  1.8-m f/2.7
        reflector + CCD.
    807 Cerro Tololo.  Observers T. Linder, R. Holmes.  Measurers T. Linder,
        R. Holmes, K. Baker.  0.41-m f/11 Ritchey-Chretien + CCD.
    G96 Mt. Lemmon Survey.  Observers A. D. Grauer, R. A. Kowalski.  Measurers
        E. J. Christensen, A. R. Gibbs, A. D. Grauer, R. E. Hill, J. A. Johnson,
        R. A. Kowalski, S. M. Larson, F. C. Shelly.  1.5-m reflector + CCD.
    H01 Magdalena Ridge Observatory, Socorro.  Observer W. H. Ryan.  2.4-m f/8.9
        reflector + CCD.
    
    Orbital elements:
    2014 TS16                                                Earth MOID = 0.0784 AU
    Epoch 2014 Dec. 9.0 TT = JDT 2457000.5                  MPC
    M   2.31410              (2000.0)            P               Q
    n   0.37150668     Peri.  246.66450     +0.32305750     -0.94626923
    a   1.9164241      Node   184.56100     +0.92101554     +0.31787046
    e   0.5137934      Incl.   10.45910     +0.21763326     +0.05943826
    P   2.65           H   22.1           G   0.15           U   7
    Residuals in seconds of arc
    141001 G96  0.1-  0.6-    141001 H01  0.1-  0.0     141003 G96  0.0   0.4+
    141001 G96  0.2+  0.1+    141001 H01  0.1-  0.1-    141003 G96  0.1+  0.5-
    141001 G96  0.3-  0.3-    141001 H01  0.2-  0.0     141003 G96  1.1-  0.3-
    141001 G96  0.0   0.3+    141002 807  0.2-  0.0     141003 G96  0.7-  0.3+
    141001 G96  0.2-  0.0     141002 807  0.1-  0.4-    141004 H01  0.1-  0.3-
    141001 G96  0.1-  0.1+    141002 807  0.4-  0.2-    141004 H01  0.2+  0.2-
    141001 G96  0.3+  0.1-    141003 291  0.4-  0.0     141004 H01  0.0   0.1+
    141001 G96  0.2-  0.3+    141003 291  0.1+  0.0     141004 H01  0.2+  0.0
    141001 H01  0.1-  0.0     141003 291  0.4-  0.4+
    
    Ephemeris:
    2014 TS16                a,e,i = 1.92, 0.51, 10                  q = 0.9318
    Date    TT    R. A. (2000) Decl.     Delta      r     Elong.  Phase     V
    2014 09 04    22 43 51.6 +07 10 13   0.4017  1.4009   165.4    10.5    21.5
    ...
    2014 09 19    22 25 50.9 +00 58 39   0.2990  1.2900   160.2    15.3    20.9
    ...
    2014 09 27    22 14 43.3 -04 23 55   0.2577  1.2321   149.8    24.1    20.7
    ...
    2014 10 03    22 06 39.4 -09 27 20   0.2323  1.1898   140.8    32.1    20.7
    2014 10 04    22 05 22.9 -10 23 01   0.2285  1.1829   139.2    33.6    20.7
    2014 10 05    22 04 07.9 -11 20 10   0.2249  1.1760   137.6    35.0    20.7
    ...
    2014 10 11    21 57 14.8 -17 33 24   0.2050  1.1357   127.8    44.0    20.6
    ...
    2014 10 19    21 50 03.9 -27 10 57   0.1839  1.0852   114.4    56.7    20.7
    ...
    2014 11 03    21 43 14.6 -49 17 18   0.1584  1.0046    90.0    81.0    20.9
    
    A. U. Tomatic                (C) Copyright 2014 MPC           M.P.E.C. 2014-T31
    

    Read MPEC 2014-T30 Read MPEC 2014-T32


    MPEC number:

    Enter an MPEC number in one of the following forms:

    • 1997-B01 (the full form)
    • J97B01 (the packed version of the full form)
    • B01 (the abbreviated form)